Regional Weather Roundup
Issued by NWS

Home | Current Version | Previous Version | Graphics & Text | Print | Product List | Glossary On
Versions: 1 2 3 4 5 6 7 8 9 10 11 12 13 14 15 16 17 18 19 20 21 22 23 24 25 26 27 28 29 30 31 32 33 34 35 36 37 38 39 40 41 42 43 44 45 46 47 48 49 50
000
ASUS45 KBOU 280107
RWRCO

WEATHER ROUNDUP FOR COLORADO
NATIONAL WEATHER SERVICE DENVER/BOULDER CO
600 PM MST FRI FEB 27 2015

NOTE: "FAIR" INDICATES FEW OR NO CLOUDS BELOW 12000 FEET WITH NO
SIGNIFICANT WEATHER AND/OR OBSTRUCTIONS TO VISIBILITY.

COZ001>005-013-030-031-280200-
...NORTHWEST COLORADO...

CITY           SKY/WX    TMP DP  RH WIND       PRES   REMARKS
CRAIG          CLEAR     29  12  49 CALM      29.74S
HAYDEN         CLEAR     27   7  43 CALM      29.74S
MEEKER         PTCLDY    25  13  60 CALM      29.73S
MOUNT WERNER   NOT AVBL
STEAMBOAT SPGS CLEAR     25   7  45 CALM      29.74R
WALDEN         CLEAR     18   7  62 CALM      29.72R
$$

COZ006>008-011-280200-
...WEST CENTRAL VALLEYS...

CITY           SKY/WX    TMP DP  RH WIND       PRES   REMARKS
GRAND JUNCTION PTCLDY    38  24  57 CALM      29.73S
MONTROSE       PTCLDY    31  24  75 SE8       29.77S WCI  23
EAGLE          MOCLDY    28  25  86 VRB6      29.75R WCI  22
RIFLE          CLOUDY    34  21  59 NW9       29.73R WCI  27
DELTA          MOCLDY    36  31  82 SE5       29.76S
NUCLA          MOCLDY    34  28  80 NW5       29.77S WCI  30
$$

COZ017>023-064>068-280200-
...SOUTHWEST COLORADO...

CITY           SKY/WX    TMP DP  RH WIND       PRES   REMARKS
DURANGO        CLOUDY    27  24  89 E5        29.77R WCI  22
CORTEZ         LGT SNOW  32  30  92 CALM      29.76F FOG
PAGOSA SPRINGS LGT SNOW  27  27  97 E3        29.76S
TELLURIDE      LGT SNOW  23  19  87 E3        29.73S
WOLF CREEK PAS SNOW      10   9  92 SW17G26   29.72S VSB 1/4 WCI  -7
$$

COZ009-010-012-014-032>034-037-058>063-280200-
...CENTRAL COLORADO...

CITY           SKY/WX    TMP DP  RH WIND       PRES   REMARKS
ASPEN          PTCLDY    21  18  88 S6        29.71S WCI  13
BUENA VISTA    PTCLDY    14   8  76 SW3       29.72S
COPPER MTN     LGT SNOW  14   7  73 W13       29.65S WCI   0
BERTHOUD PASS  LGT SNOW   3  -4  72 NW9       29.64S VSB 3/4 WCI -11
COTTONWOOD PAS PTCLDY    18  12  79 CALM      29.69S
GUNNISON       MOCLDY    28  12  50 W5        29.74R WCI  23
KREMMLING      CLOUDY    25  14  63 SW3       29.74R
LEADVILLE      LGT SNOW  13  11  92 S9        29.67R FOG     WCI   1
SALIDA         PTCLDY    21  14  75 SE8       29.82R WCI  11
SUNLIGHT       SNOW      18  14  86 CALM        N/A  VSB 1/2
WILKERSON PASS CLOUDY    12   9  85 SW5       29.69S WCI   4
$$

COZ069>075-280200-
...SAN LUIS VALLEY/SANGRE DE CRISTO MOUNTAINS...

CITY           SKY/WX    TMP DP  RH WIND       PRES   REMARKS
ALAMOSA        MOCLDY    22  15  75 W7        29.75R WCI  13
LA VETA PASS   LGT SNOW  16  12  86 MISG      29.72S VSB 1
SAGUACHE       LGT SNOW  23  19  86 CALM      29.76R VSB 3/4
$$

COZ035-036-038>040-280200-
...NORTHERN COLORADO FRONT RANGE...

CITY           SKY/WX    TMP DP  RH WIND       PRES   REMARKS
DENVER INTL AP MOCLDY    12   5  73 NW10      29.90R WCI  -1
DMNS CITY PARK   N/A     14   7  72 N5        29.91R WCI   7
AURORA         MOCLDY    11   5  77 NW7       29.89R WCI   0
FRONT RANGE AP NOT AVBL
ERIE MUNI ARPT PTCLDY    11   6  81 CALM      29.92F
BOULDER MUN AP CLOUDY    12   9  85 CALM      29.92S
CENTENNIAL     MOCLDY    14   7  73 N7        29.87R WCI   4
BROOMFIELD     MOCLDY    12   7  79 N9        29.89S WCI   0
FORT COLLINS   CLEAR     12   1  62 N5        29.95S WCI   4
LONGMONT       PTCLDY    13   6  70 W5        29.96S WCI   6
$$

COZ041-046-047-076>085-087-088-280200-
...PIKES PEAK/PALMER DIVIDE AND SOUTHERN FOOTHILLS...

CITY           SKY/WX    TMP DP  RH WIND       PRES   REMARKS
COLO. SPRINGS  LGT SNOW   9   6  88 SE6       29.89S FOG     WCI  -1
A. F. ACADEMY  CLOUDY     8   2  77 S8        29.85S WCI  -5
ELLICOTT       NOT AVBL
FALCON         LGT SNOW   4   2  88 S5        29.85S WCI  -5
FORT CARSON    LGT SNOW   9   7  92 CALM      29.91S VSB 1
LIMON          LGT SNOW   7   4  87 SE20      29.96R FOG     WCI -13
MONUMENT HILL  MOCLDY     5   0  78 SW12      29.81R WCI -11
TRINIDAD       PTCLDY    13   8  81 NW10      29.90R WCI   0
$$

COZ042>045-048>051-090-091-280200-
...NORTHEAST COLORADO...

CITY           SKY/WX    TMP DP  RH WIND       PRES   REMARKS
GREELEY ARPT   CLOUDY    18   5  57 SE12      29.95S WCI   5
AKRON          CLOUDY    10   5  80 S17G25    30.01S WCI  -8
BURLINGTON     CLOUDY    11   4  73 S21       30.09S WCI  -8
WRAY           CLOUDY    15  10  78 SE15      30.13S WCI   0
STERLING       CLOUDY    18  10  73 S15       30.04S WCI   3
HOLYOKE        NOT AVBL
FORT MORGAN    PTCLDY    13   5  71 S14       30.00S WCI  -2
$$

COZ086-089-092>099-280200-
...SOUTHEAST COLORADO...

CITY           SKY/WX    TMP DP  RH WIND       PRES   REMARKS
PUEBLO         LGT SNOW  17  13  84 E12       29.97R FOG     WCI   4
LA JUNTA       PTCLDY    16   8  71 E12       30.01R WCI   3
LAMAR          PTCLDY    12   7  80 SE17G24   30.09S WCI  -5
SPRINGFIELD      N/A     10   7  87 S23       30.05F WCI -10
$$



USA.gov is the U.S. government's official web portal to all federal, state and local government web resources and services.